星链-31828 (STARLINK-31828 )

导读

STARLINK-31828是美国太空探索技术公司星链计划中的一颗卫星,于2024年5月14日发射升空,属于Starlink Group组网卫星。星链计划旨在构建全球卫星互联网星座,为全球提供高速互联网接入服务,该卫星的发射进一步扩充了星链星座的在轨规模,提升星座的覆盖能力与服务性能。

基本信息
目录编号:
59767
目录名称:
STARLINK-31828
国际标识:
2024-091Q
轨道中心:
EARTH
卫星名称:
星链-31828
卫星全名:
星链-31828 (STARLINK-31828 )
卫星状态:
在轨 (已飞行851 天)
发射日期:
2024-05-14 UTC
国别 :
美国 (US)
星等 :
--
该卫星已列入 空间交会检测服务 Space Conjunction Data Service (SCDS) ,当前飞行风险评估等级: 无高风险
轨道信息
数据来源 国际轨道数据 AOE轨道数据
星历时间 2026-09-11T17:00:01+0800
18小时前
查看轨道信息
2026-09-09T21:00:00+0800
2天前
查看轨道信息
半长轴 6848.893km 6848.811km
偏心率 0.0001479 0.0001433
轨道倾角 53.159° 53.153°
近地点辐角 86.134° 63.333°
升交点赤经 242.980° 251.519°
平近点角 273.983° 261.895°
近地点 469.743km 469.692km
远地点 471.769km 471.656km
周期 94.014分钟 94.012分钟
每日圈数 15.316947 15.317222
详细信息
固有亮度:
5
最大亮度:
1.5
卫星平台:
Starlink v2.0 mini
覆盖范围:
全球
运营商:
太空探索技术公司
运营商所在国:
美国
制造商(研发单位):
太空探索技术公司
制造商所在国:
美国
使用方式:
暂无
卫星简介
星链(Starlink)计划是由太空探索技术公司(SpaceX)提出的一个巨型低轨卫星互联网星座项目,计划在2019年至2024年间在太空搭建由约1.2万颗卫星组成的“星链”网络,其中1584颗将部署在地球上空550千米处的近地轨道,并从2020年开始工作。该卫星仍在工作。
2D轨道图
3D轨道图
轨道高度分析图
轨道倾角分析图
轨道综合分析图
查看轨道综合分析图
交会数据列表
事件ID 空间交会对象 最接近时刻(TCA) 交会距离 交会风险概率(CRP) 交会风险指数(CRI) 操作
CDM_260909-013905-976706-240021
XCUBE-1 (62400)
2026-09-09T
01:39:53+0000
0.701 km
远距离
4.60329E-5 中风险 0.68
CDM_260913-223404-608305-976721
2026-09-13T
22:34:18+0000
0.867 km
远距离
2.692288E-5 中风险 0.64
CDM_260910-050705-976706-518221
2026-09-10T
05:07:40+0000
2.714 km
极远距离
1.447344E-6 低风险 0.38
CDM_260913-170504-608305-976722
2026-09-13T
17:05:27+0000
2.275 km
极远距离
1.386872E-6 低风险 0.38
CDM_260912-123905-976706-975921
2026-09-12T
12:39:24+0000
2.942 km
极远距离
1.334186E-6 低风险 0.38
CDM_260910-155200-346205-976723
2026-09-10T
15:52:49+0000
2.557 km
极远距离
1.29737E-6 低风险 0.37
CDM_260913-082005-976706-554221
2026-09-13T
08:20:38+0000
2.790 km
极远距离
1.248729E-6 低风险 0.37
与全量物体交会距离演化趋势
与全量物体交会风险概率演化趋势